Location: Grand Rapids
(42.9630°N, 85.6680°W)
Time: 07:39:18
(UTC-04:00)

Tiros 1 - Pass Details

Date: 24 April 2025
Orbit: 620 x 652 km, 48.4° (Epoch: 13 May)

Event Time Altitude Azimuth Distance (km) Brightness Sun altitude
Exits shadow 04:48:58 41° 202° (SSW) 946 7.5 -19.4°
Maximum altitude 04:50:20 57° 147° (SSE) 761 7.4 -19.2°
Drops below altitude 10° 04:54:59 10° 69° (ENE) 2,057 10.8 -18.6°
Sets 04:57:21 0° 65° (ENE) 2,970 12.0 -18.3°
